Simultaneous Nadir Overpasses (SNOs) Predictions

Prediction of SNOs between AQUA and METOP-A Satellite Orbit:

Table of predicted SNOs for the next 14.0 days since TLE Epoch: 9/21/2019
Index Date (AQUA) Time (AQUA) Lat,Lon (AQUA) SZA (AQUA ) Date (METOP-A) Time (METOP-A) Lat,Lon (METOP-A) SZA (METOP-A ) Distance(km) Time Diff (sec)
1 09/22/2019 21:54:26 75.44,-158.27 75.34 09/22/2019 21:53:15 75.45,-158.20 75.36 2.57 71
2 09/22/2019 22:43:52 -75.46, 9.29 104.62 09/22/2019 22:43:56 -75.49, 9.25 104.59 3.37 4
3 09/22/2019 23:33:21 75.53, 176.74 75.47 09/22/2019 23:34:34 75.58, 176.84 75.50 5.70 73
4 09/25/2019 17:28:41 75.43, -91.83 76.42 09/25/2019 17:27:39 75.42, -91.93 76.43 2.93 62
5 09/25/2019 18:18:08 -75.50, 75.62 103.49 09/25/2019 18:18:19 -75.51, 75.67 103.48 1.88 11
6 09/25/2019 19:07:43 75.88,-117.84 76.93 09/25/2019 19:08:51 75.88,-115.86 76.86 53.71 68
7 09/28/2019 13:02:57 75.44, -25.41 77.51 09/28/2019 13:02:03 75.44, -25.51 77.53 3.10 54
8 09/28/2019 13:52:24 -75.50, 142.07 102.41 09/28/2019 13:52:44 -75.49, 141.94 102.42 3.61 20
9 10/01/2019 08:37:13 75.45, 41.00 78.61 10/01/2019 08:36:27 75.46, 40.90 78.64 3.37 46
10 10/01/2019 09:26:40 -75.50,-151.50 101.32 10/01/2019 09:27:08 -75.51,-151.64 101.32 3.93 28
11 10/04/2019 04:11:29 75.46, 107.39 79.71 10/04/2019 04:10:51 75.48, 107.30 79.73 3.09 38
12 10/04/2019 05:00:57 -75.56, -85.23 100.18 10/04/2019 05:01:32 -75.52, -85.23 100.22 3.56 35




NCC Satellite Simultaneous Nadir Overpasses (SNOs) Prediction Service
